Location: Carri�res
(48.9069°N, 2.1792°E)
Time: 11:03:31
(UTC+00:00)

deb Kosmos- 1898 - Pass Details

Date: 02 August 2021
Orbit: 731 x 754 km, 74.0° (Epoch: 18 September)

Event Time Altitude Azimuth Distance (km) Brightness Sun altitude
Exits shadow 01:30:41 32° 159° (SSE) 1,257 ? -20.2°
Maximum altitude 01:32:38 49° 106° (ESE) 964 ? -20.1°
Drops below altitude 10° 01:37:35 10° 33° (NNE) 2,279 ? -19.7°
Sets 01:40:01 0° 28° (NNE) 3,211 ? -19.6°
